Preview of NWS' New Version of Forecast
This preview is not operational and should not be used for support decisions.
Latest weather observations around

Aspen-Pitkin County Airport (KASE)

Using English Units (Switch to International System of Units)
Date/ Time (MDT) Wind (mph) Vis. (mi) Weather Sky Cond. Temp (°F) Rel. Humidity Wind Chill (°F) Heat Index (°F) Pressure Precip. (in)
Air Dwpt 6 hour Altimeter (inHg) Sea level (inHg) 1 hr 3 hr 6 hr
Max Min
Jun 19 02:53 Calm 10 Mostly Cloudy SCT080 BKN095 45 41     86%       29.99 0 0  
Jun 19 01:53 S 5 10 Light Rain BKN046 OVC060 46 42     86% 44     30.01 0    
Jun 19 00:53 SSW 3 10 Cloudy SCT050 BKN070 OVC090 47 42     83% 46     29.99      
Jun 18 23:53 SE 8 10 Cloudy OVC065 47 42     83% 43     29.98 0   0
Jun 18 22:53 SSE 8 10 Light Rain FEW023 OVC049 48 42     80% 44     30.02 0    
Jun 18 22:31 Calm 8 Light Rain FEW022 BKN031 OVC040 48 41     77%         0    
Jun 18 21:53 W 5 10 Light Rain SCT025 BKN029 OVC055 49 42     77% 47     30.03 0    
Jun 18 20:53 SSE 8 10 Cloudy BKN070 BKN090 OVC110 49 44     83% 45     30 0 0  
Jun 18 20:10 SE 7 10 Light Rain SCT020 BKN065 OVC075 49 43     80% 46       0    
Jun 18 20:00 S 6 10 Light Rain FEW016 BKN021 OVC060 48 43     83% 45       0    
Jun 18 19:53 ESE 3 10 Light Rain FEW016 BKN050 OVC065 48 43     83% 47     30.02 0    
Jun 18 19:30 Calm 10 Light Rain FEW034 SCT047 OVC070 47 43     86%         0    
Jun 18 19:10   3 Light Rain FEW031 BKN050 OVC070 50 41     71%         0    
Jun 18 18:53 Calm 10 Mostly Cloudy FEW055 BKN070 BKN100 56 44     64%       29.92 0    
Jun 18 17:53 Calm 10 Mostly Cloudy FEW070 BKN090 58 41     53%             0
Jun 18 16:53 Calm 10 Mostly Cloudy BKN060 57 44     62%       29.94      
Jun 18 15:53 N 5 10 Cloudy BKN048 BKN070 OVC085 54 44     69%       29.99 0    
Jun 18 14:53 NNW 9 7 Light Rain SCT015 BKN030 OVC050 52 47     83%     30.26 30.02 0 0  
Jun 18 13:53 N 6 6 Rain FEW015 BKN030 OVC046 53 47     80%       30 0    
Jun 18 12:53 NNW 11 10 Cloudy SCT028 BKN046 OVC110 56 44     64%       29.95 0    
Jun 18 12:44 NW 13 10 Cloudy SCT028 BKN046 OVC110 58 43     57%         0    
Jun 18 11:53 NNW 5 10 Cloudy FEW029 BKN070 OVC110 59 43     55%       29.93      
Jun 18 10:53 N 6 10 Cloudy OVC070 56 45     67%       29.96      
Jun 18 09:53 N 5 10 Cloudy BKN065 OVC085 54 44     69%       29.95      
Jun 18 08:53 Calm 10 Cloudy OVC080 53 43     69%       29.95      
Jun 18 07:53 Calm 10 Mostly Cloudy BKN060 50 43     77%       29.95      
Jun 18 06:53 SW 3 10 Cloudy OVC060 48 43     83% 47     29.94      
Jun 18 05:53 WSW 3 10 Mostly Cloudy BKN065 BKN095 46 42     86% 45     29.94      
Jun 18 04:53 SSW 3 10 Cloudy SCT065 OVC090 48 43     83% 47     29.91      
Jun 18 03:53 SSE 3 10 Cloudy OVC060 48 42     80% 47     29.93      
Jun 18 02:53 Calm 10 Partly Cloudy SCT085 46 42     86%       29.95      
Jun 18 01:53 Calm 10 Partly Cloudy SCT100 47 42     83%              
Jun 18 00:53 SW 5 10 Mostly Cloudy SCT095 BKN120 50 44     80%              
Jun 17 23:53 SE 5 10 Cloudy OVC065 52 44     74%       29.92      
Jun 17 23:24 Calm 10 Cloudy SCT020 SCT047 OVC060 52 44     74%              
Jun 17 22:53 W 5 10 Cloudy OVC020 51 44     77%       29.93      
Jun 17 21:53 NNW 11 10 Cloudy BKN017 OVC041 53 45     74%       29.94      
Jun 17 20:53 Calm 10 Cloudy OVC085 54 43     66%              
Jun 17 19:53 NNE 5 10 Partly Cloudy SCT080 59 40     49%       29.89      
Jun 17 18:53 5 10 Clear CLR 62 39     43%       29.86      
Jun 17 17:53   10 Cloudy SCT060 OVC100 61 40     46%       29.87 0   0
Jun 17 17:12   10 Cloudy OVC070 60 42     51%              
Jun 17 16:53 NNW 6 10 Cloudy SCT070 OVC100 65 40     40%              
Jun 17 15:53 S 5 10 Clear CLR 62 41     46%         0    
Jun 17 14:53 E 9 10 Light Rain FEW040 BKN070 OVC085 57 43     59%       29.88 0 0  
Jun 17 13:53 N 11 10 Light Rain FEW025 SCT080 OVC100 69 39     33%         0    
Jun 17 12:53 SSE 14 10 Clear CLR 67 37     33%              
Jun 17 11:53 7 10 Mostly Cloudy BKN070 BKN080 BKN100 65 43     45%       29.88 0   0
Jun 17 11:32 NNE 9 10 Thunderstorms BKN060 BKN070 OVC100 61 43     52%         0    
Jun 17 11:21 N 10 10 Light Rain BKN060 60 41     49%         0    
Jun 17 11:13 NW 18 10 Mostly Cloudy BKN060 BKN080 BKN110 62 40     44%              
Jun 17 11:00 NE 6 10 Partly Cloudy FEW080 SCT110 67 39     36%              
Jun 17 10:53 NE 6 10 Partly Cloudy FEW085 SCT110 68 39     35%       29.83      
Jun 17 09:53 ENE 3 10 Clear CLR 65 39     38%       29.85      
Jun 17 08:53 SSE 8 10 Clear CLR 59 40     49%           0  
Jun 17 07:53 SE 9 10 Partly Cloudy SCT085 53 42     66%       29.87 0    
Jun 17 06:53 S 6 10 Light Rain BKN060 OVC090 50 43     77%       29.88 0    
Jun 17 05:53 SSW 5 10 Cloudy BKN070 OVC090 50 40     68%       29.84      
Jun 17 04:53 Calm 10 Cloudy OVC075 52 40     63%       29.81      
Jun 17 03:53 SW 6 10 Cloudy BKN080 OVC100 51 39     63%       29.81      
Jun 17 02:53 SSW 5 10 Cloudy OVC085 52 38     59%       29.81      
Jun 17 01:53 SSW 5 10 Mostly Cloudy BKN120 51 38     61%       29.84      
Jun 17 00:53 SW 7 10 Cloudy OVC120 52 37     57%       29.87      
Jun 16 23:53 SSW 7 10 Clear   50 37     61%       29.83     0
Jun 16 22:53 SW 7 10 Clear CLR 54 37     53%       29.8      
Jun 16 21:53 SSW 9 10 Mostly Cloudy SCT090 BKN100 55 38     52%       29.81      
Jun 16 20:53 SSW 6 10 Mostly Cloudy FEW060 SCT100 BKN120 58 39     49%       29.82 0 0  
Jun 16 19:53 NW 10 10 Clear CLR 66 36     33%       29.78      
Jun 16 18:53 3 10 Clear CLR 69 32     25%     30.11        
Jun 16 17:53 3 10 Clear CLR 72 32     23%   70   29.78     0
Jun 16 16:53 NNE 5 10 Mostly Clear FEW100 71 35     27%   69   29.79      
Jun 16 15:53 N 9 10 Clear CLR 72 34     25%   70 30.13 29.8      
Jun 16 14:53 E 5 10 Partly Cloudy SCT070 69 34     27%     30.14     0  
Jun 16 13:53 N 8 10 Cloudy BKN085 OVC100 64 38     38%     30.17 29.86 0    
Jun 16 12:53 N 14 10 Light Rain BKN075 BKN090 60 41     49%       29.88 0    
Jun 16 11:53 N 9 10 Mostly Clear FEW095 71 37     29%   69 30.15 29.8      
Jun 16 10:53 N 6 10 Clear CLR 69 38     32%              
Jun 16 09:53 Calm 10 Mostly Clear FEW100 62 38     41%       29.86      
Jun 16 08:53 NW 6 10 Mostly Cloudy BKN095 53 38     56%       29.91      
Jun 16 07:53 Calm 10 Partly Cloudy FEW075 SCT090 SCT110 50 38     63%       29.9      
Jun 16 06:53 Calm 10 Clear CLR 48 37     66%              
Jun 16 05:53 SW 7 10 Clear CLR 42 35     76% 38            
Jun 16 04:53 SW 5 10 Clear CLR 41 35     79% 38     29.88      
Jun 16 03:53 Calm 10 Clear CLR 44 36     73%       29.85      
May 15 12:53 WNW 9 10 Mostly Clear FEW120 66        %     30.15 29.87      
May 14 23:53 SW 10 10 Clear CLR 42 17     36% 36     29.91      
May 13 21:53 SSW 8 10 Clear CLR 47 26     44% 43     29.8      
May 12 08:53   10 Clear CLR 62        %     29.97 29.59      
May 12 01:53 SE 3 10 Mostly Clear FEW120 56 21     25%     29.89 29.51      
May 11 20:53 SW 9 10 Partly Cloudy SCT110 64 19     18%     29.84        
May 11 14:53 SSW 6 10 Clear CLR 70 22     16%     29.81 29.46      
May 11 11:48 SW 16 10 Clear CLR 64        %     29.87        
Jun 11 17:53 WSW 9 10 Clear CLR 78        %     29.95 29.54      
Jun 11 13:53 7 10 Clear CLR 75        %     30 29.59      
Jun 11 04:53 SSW 8 10 Clear CLR 53 28     38%     29.97 29.56      
Notice The following observation data may not be complete
Jun 11 03:53 S 11 10 Clear CLR   25      %     29.96 29.54      
Jun 10 11:53   10 Clear CLR 76        %     29.99 29.6      
Jun 10 00:53 SSE 7 10 Clear CLR 60 28     29%     29.98 29.57      
Jun 09 22:53 SSW 8 10 Clear CLR 60 28     29%     30        
Jun 09 20:53 SSW 7 10 Clear CLR 63 30     29%     29.98 29.62      
Jun 08 02:53 SSW 7 10 Partly Cloudy SCT120 51 38     61%       29.95      
Jun 06 12:14 N 8 10 Thunderstorms CLR 75 35     23%   73          
Jun 06 05:53 S 5 10 Clear CLR 49 36     61% 47